Location: Cisewo
(53.3833°N, 14.9000°E)
Time: 10:58:19
(UTC+00:00)

Cosmos 44 - Pass Details

Date: 18 April 2021
Orbit: 571 x 791 km, 65.1° (Epoch: 14 May)

Event Time Altitude Azimuth Distance (km) Brightness Sun altitude
Rises 19:10:58 0° 198° (SSW) 3,111 6.5 -9.4°
Reaches altitude 10° 19:13:21 10° 192° (SSW) 2,228 5.7 -9.7°
Maximum altitude 19:18:11 44° 122° (ESE) 1,053 3.8 -10.2°
Drops below altitude 10° 19:23:16 10° 52° (NE) 2,342 5.9 -10.9°
Sets 19:25:49 0° 46° (NE) 3,288 6.7 -11.2°
